Flag for Canada Weather past 2 weeks in Igloolik, Nunavut Territory, Canada

Now
48 °F

Fog.


Feels Like: 46 °F
Forecast: 49 / 67 °F
Wind: 5 mph from Southeast

Location: Hall Beach

Current Time: Jul 28, 2014 at 1:21:11 PM

Latest Report: Jul 28, 2014 at 12:00 PM


Visibility: 15 mi

Pressure: 30.06 "Hg

Humidity: 87%

Dew point: 45 °F

Location of IgloolikLocation

Historic Weather in Igloolik — Graph

°F

Igloolik temperature yesterday

Maximum temperature yesterday: 59 °F (at 11:00 AM)
Minimum temperature yesterday: 43 °F (at 1:00 AM)
Average temperature yesterday: 52 °F

Past Weeks' High & Low Weather Summary

 TemperatureHumidityPressure
High61 °F (Jul 14, 1:00 PM)100% (Jul 16, 9:45 AM)30.22 "Hg (Jul 16, 9:45 AM)
Low36 °F (Jul 17, 4:00 AM)39% (Jul 13, 7:00 PM)29.26 "Hg (Jul 18, 1:58 AM)
Average47 °F84%29.75 "Hg
* Reported Jul 13 12:00 Noon — Jul 28 12:00 Noon, Igloolik, Weather by CustomWeather, © 2014

Note: Actual official high and low records may vary slightly from our data, if they occured in-between our weather recording intervals... More about our weather records

Advertising

Igloolik weather history for previous 24 hours

 ConditionsComfort  
Time TempWeatherWind HumidityBarometerVisibility
12:00 PM
Jul 28
48 °FFog.5 mph87%30.06 "Hg15 mi
11:00 AM48 °FFog.6 mph87%30.06 "Hg15 mi
10:00 AM59 °FFog.9 mph77%30.06 "Hg15 mi
9:00 AM57 °FFog.7 mph82%30.06 "Hg15 mi
8:00 AM52 °FFog.5 mph94%30.06 "Hg15 mi
7:00 AM48 °FFog.7 mph87%30.05 "Hg1 mi
6:58 AM50 °FFog.8 mph88%30.05 "Hg1 mi
6:00 AM50 °FMostly cloudy.2 mph100%30.05 "Hg9 mi
5:04 AM50 °FFog.3 mph94%30.04 "Hg2 mi
5:00 AM50 °FOvercast.2 mph94%30.04 "Hg8 mi
4:00 AM52 °FMostly cloudy.6 mph94%30.04 "Hg9 mi
3:00 AM54 °FMore clouds than sun.5 mph94%30.03 "Hg9 mi
2:00 AM55 °FOvercast.6 mph88%30.03 "Hg9 mi
1:00 AM55 °FOvercast.8 mph88%30.03 "Hg9 mi
12:00 AM55 °FPassing clouds.6 mph88%30.03 "Hg9 mi
11:00 PM
Jul 27
57 °FPartly sunny.7 mph82%30.03 "Hg9 mi
10:00 PM59 °FSunny.7 mph77%30.03 "Hg9 mi
9:00 PM59 °FSunny.6 mph72%30.03 "Hg9 mi
8:00 PM59 °FBroken clouds.6 mph77%30.02 "Hg15 mi
7:00 PM55 °FBroken clouds.7 mph72%30.02 "Hg15 mi
6:00 PM57 °FPartly sunny.3 mph67%30.02 "Hg15 mi
5:00 PM54 °FPartly sunny.3 mph77%30.02 "Hg15 mi
4:00 PM50 °FPartly sunny.7 mph82%30.01 "Hg15 mi
3:00 PM54 °FPartly sunny.5 mph77%30.01 "Hg15 mi
2:00 PM55 °FScattered clouds.5 mph72%30.01 "Hg15 mi
1:00 PM55 °FPassing clouds.8 mph72%30.00 "Hg15 mi
Weather by CustomWeather, © 2014

See weather overviewHow to use our weather pages